Regional Weather Roundup
Issued by NWS

Home | Current Version | Previous Version | Text Only | Print | Product List | Glossary On
Versions: 1 2 3 4 5 6 7 8 9 10 11 12 13 14 15 16 17 18 19 20 21 22 23 24 25 26 27
000
ASUS45 KTFX 281010
RWRMT
MONTANA REGIONAL WEATHER ROUNDUP
NATIONAL WEATHER SERVICE GREAT FALLS MT
400 AM MDT SUN AUG 28 2016

NOTE: "FAIR" INDICATES FEW OR NO CLOUDS BELOW 12000 FEET WITH NO
SIGNIFICANT WEATHER AND/OR OBSTRUCTIONS TO VISIBILITY.

MTZ001>007-043-281100-
WEST OF THE DIVIDE

CITY           SKY/WX    TMP DP  RH WIND       PRES   REMARKS
KALISPELL        N/A     63  43  48 VRB6      29.87R
MISSOULA       CLOUDY    69  43  38 CALM      29.94R
BUTTE          CLEAR     49  31  49 CALM      30.05R
MULLAN PASS      N/A     51  36  56 VRB7      30.05R
EUREKA           N/A     57  45  62 CALM        N/A
HAMILTON         N/A     61  39  44 S7        29.96R
LIBBY            N/A     64  36  34 E6        29.86R
PLAINS           N/A     70  43  37 SW2       29.92R
RONAN            N/A     68  45  43 SW6       29.97R
$$

MTZ008-052>055-281100-
SOUTHWEST MONTANA

CITY           SKY/WX    TMP DP  RH WIND       PRES   REMARKS
BOZEMAN        CLOUDY    52  37  56 SE6       29.99R
DILLON         CLOUDY    53  31  42 SW8       30.03R
W YELLOWSTONE  CLOUDY    39  23  52 CALM      30.18R HAZE
ENNIS          CLOUDY    59  27  29 S15       30.09S
THREE FORKS      N/A     53  15  22 CALM      29.97R
TWIN BRIDGES     N/A     54  30  40 SE6       30.01R
$$

MTZ009-010-012-014-046-048-049-054-281100-
EAST SLOPES AND CENTRAL MONTANA

CITY           SKY/WX    TMP DP  RH WIND       PRES   REMARKS
CUT BANK         N/A     51  45  79 N9        29.88R
GREAT FALLS    CLOUDY    70  38  31 SW12      29.86R
MALMSTROM AFB  CLOUDY    70  39  32 MISG      29.85R
HELENA         CLOUDY    73  37  27 W13       29.94R
CHOTEAU          N/A     63  39  42 CALM      29.89R
CONRAD           N/A     64  45  50 W7        29.90R
$$

MTZ011-013-016-021-045-047-050-051-281100-
NORTH CENTRAL MONTANA

CITY           SKY/WX    TMP DP  RH WIND       PRES   REMARKS
HAVRE          CLOUDY    66  45  46 W7        29.80R
LEWISTOWN      CLOUDY    63  44  50 CALM      29.91R
N BAR RANCH      N/A     59  36  41 VRB3      29.95R
CHINOOK          N/A     66  46  48 CALM      29.78R
$$

MTZ017>020-022>027-061-062-281100-
NORTHEAST MONTANA

CITY           SKY/WX    TMP DP  RH WIND       PRES   REMARKS
GLASGOW        CLOUDY    64  46  52 E8        29.76F
JORDAN           N/A     59  41  51 SE3       29.81R
SIDNEY         PTCLDY    55  47  74 CALM      29.82S
WOLF POINT     MOCLDY    59  45  59 CALM      29.79R
POPLAR           N/A     57  45  62 N5        29.80R
$$

MTZ028>42-056>058-281100-
SOUTHCENTRAL AND SOUTHEAST MONTANA

CITY           SKY/WX    TMP DP  RH WIND       PRES   REMARKS
BAKER          CLEAR     55  50  83 SE6       29.89R
BILLINGS       CLEAR     70  33  25 SW12      29.90R
LIVINGSTON     CLEAR     60  31  33 W8        29.98R
MILES CITY     CLEAR     60  47  61 S8        29.84R
FORSYTH          N/A     59  43  55 CALM      29.83R
LAUREL           N/A     62  32  32 W2        29.91R
ROUNDUP          N/A     58  37  45 S9        29.81R
$$

REGIONAL REPORTS...DAKOTAS

CITY           SKY/WX    TMP DP  RH WIND       PRES   REMARKS
WILLISTON      CLOUDY    65  48  54 S7        29.82S
MINOT          CLEAR     55  49  80 CALM      29.85F
DICKINSON      CLEAR     59  52  77 S13       29.86F
CROSBY           N/A     61  50  67 S13       29.82S
WATFORD CITY     N/A     63  54  72 S6        29.84F
BISMARCK       PTCLDY    57  53  86 NE8       29.89F
GRAND FORKS    CLEAR     58  55  90 SE7       29.97R
FARGO          CLEAR     62  58  86 S12       30.00R
BUFFALO SD       N/A     60  55  83 S5        29.84R
RAPID CITY     CLEAR     59  51  75 S5        29.92S
$$

REGIONAL REPORTS...WYOMING/IDAHO/WASHINGTON

CITY           SKY/WX    TMP DP  RH WIND       PRES   REMARKS
GILLETTE       CLEAR     60  34  37 SE7       29.98R
SHERIDAN       CLOUDY    49  39  68 NW3       29.94R
BUFFALO WY     CLOUDY    59  26  28 W9        30.01R
CODY           CLEAR     63  28  27 S15       30.03S
YELLOWSTONE LA   N/A     34  28  79 CALM      30.27R
IDAHO FALLS    CLEAR     58  33  39 SW6       30.07R
SALMON         CLEAR    N/A N/A N/A MISG        N/A
BOISE            N/A     64  34  32 W6        29.97R
SPOKANE        MOCLDY    59  40  49 S13       29.91R
$$

REGIONAL REPORTS...ALBERTA

CITY           SKY/WX    TMP DP  RH WIND       PRES   REMARKS
EDMONTON       CLOUDY    48  43  81 W12G23    29.84R
CALGARY        LGT RAIN  48  45  87 N16       29.91R
LETHBRIDGE     PTCLDY    46  45  93 W15       29.89R
MEDICINE HAT   CLEAR     54  50  87 W9        29.82R
WATERTON GATE    N/A     41  39  93 E1          N/A
CARDSTON         N/A     46  43  87 SW7         N/A
ONEFOUR          N/A     55  54  94 NW8         N/A
$$

REGIONAL REPORTS...SASKATCHEWAN

CITY           SKY/WX    TMP DP  RH WIND       PRES   REMARKS
SWIFT CURRENT  CLOUDY    61  54  77 W12       29.75R
REGINA         CLOUDY    61  48  63 SE12      29.73S
SASKATOON      PTCLDY    59  54  82 SW9       29.62R
CYPRESS HILLS    N/A     55  48  76 N3          N/A
VAL MARIE        N/A     57  45  62 W1          N/A
ROCKGLEN         N/A     64  41  42 S10         N/A
$$




USA.gov is the U.S. government's official web portal to all federal, state and local government web resources and services.